map of CFU home
Great Circle Mapper logo
CFU - Airport
Location
City:  Kerkyra, Corfu, Greece
Name:Ioannis Kapodistrias International Airport
ICAO / IATA:LGKR / CFU

Details
Type:Airport (Aerodrome, Airfield)
Use:Public/Civil, International (customs port of entry)
Latitude:3936'07"N (39.601944)
Longitude:1954'42"E (19.911667)
Datum:WGS 1984
Elevation:6 ft (2 m)
Runways:1
Longest:7792 × 148 ft (2375 × 45 m), paved

Time
Time Zone:UTC+2 (DST+3)
Local Time:

Weather
METAR:LGKR 311850Z 00000KT 9999 FEW035 24/20 Q1006 NOSIG
TAF:LGKR 311700Z 3118/0118 32013KT 9999 FEW035

Related Locations
Nearby:
Farthest:CHT: 11547 mi / 18583 km
Waitangi [Tuuta], Chatham Islands, NZ

Find:

   beyond  
but within

Other Information
Maps:
NOTAMs:
Links:
Sources:

  
flag of Greece   

Airport Diagram

Airport diagram for CFU

Airport diagram (OBSOLETE) from NGA

Sectional Chart

Flight Planning
at skyvector.com

Satellite Image

Google Maps Satellite View

 

Copyright © 2004-2014 Karl L. Swartz. All rights reserved.
The Great Circle Mapper name and logo are trademarks of the Great Circle Mapper.
All other trademarks mentioned herein belong to their respective owners.
Please see credits for attibutions and further copyright information.

  Follow gcmap on Facebook Follow gcmap on Twitter

hCard Microformat

Geo Microformat